Change the Weather History Date:

Monday, July 29, 2013

  Actual Average Record
Temperature  
Mean Temperature 66 °F 70 °F  
Max Temperature 87 °F 88 °F 97 °F (1972)
Min Temperature 45 °F 52 °F 37 °F (1948)
Degree Days  
Heating Degree Days 0 0  
Month to date heating degree days 0 18  
Since 1 June heating degree days 121 183  
Since 1 July heating degree days 0 18  
Cooling Degree Days 1 5  
Month to date cooling degree days 192 120  
Year to date cooling degree days 257 144  
Since 1 June cooling degree days 255 142  
Growing Degree Days 16 (Base 50)    
Moisture  
Dew Point 24 °F    
Average Humidity 25    
Maximum Humidity 41    
Minimum Humidity 8    
Precipitation  
Precipitation 0.00 in 0.03 in 0.58 in (1982)
Month to date precipitation 0.54 0.78  
Year to date precipitation 2.28 6.55  
Sea Level Pressure  
Sea Level Pressure 29.84 in    
Wind  
Wind Speed 7 mph (WNW)    
Max Wind Speed 29 mph    
Max Gust Speed 43 mph    
Visibility 9 miles    
Events      
T = Trace of Precipitation, MM = Missing Value Source: NWS Daily Summary

Daily Weather History Graph

Daily Weather History Graph

Search for Another Location

Airport or City:

Trip Planner

Search our weather history database for the weather conditions in past years. The results will help you decide how hot, cold, wet, or windy it might be!

Date:

Astronomy

Jul. 29, 2013 Rise Set
Actual Time 6:20 AM MDT 9:05 PM MDT
Civil Twilight 5:46 AM MDT 9:38 PM MDT
Nautical Twilight 5:04 AM MDT 10:21 PM MDT
Astronomical Twilight 4:14 AM MDT 11:10 PM MDT
Moon 12:10 AM MDT (7/29) 2:27 PM MDT (7/29)
Length of Visible Light 15h 52m
Length of Day
14h 44m
Waning Gibbous, 50% of the Moon is Illuminated
Jul 29
Waning Gibbous
Aug 6
New
Aug 14
First Quarter
Aug 20
Full
Aug 28
Last Quarter

Hourly Weather History & Observations

Time (MDT) Temp. Dew Point Humidity Pressure Visibility Wind Dir Wind Speed Gust Speed Precip Events Conditions
12:55 AM 63.0 °F 23.0 °F 22% 29.73 in 8.0 mi Calm Calm - N/A   Mostly Cloudy
1:55 AM 55.0 °F 27.0 °F 34% 29.77 in 9.0 mi Calm Calm - N/A   Clear
2:55 AM 53.1 °F 21.9 °F 30% 29.79 in 9.0 mi Calm Calm - N/A   Clear
3:55 AM 53.1 °F 21.0 °F 29% 29.80 in 10.0 mi Calm Calm - N/A   Clear
4:55 AM 48.0 °F 23.0 °F 37% 29.84 in 10.0 mi Calm Calm - N/A   Clear
5:55 AM 46.9 °F 21.9 °F 37% 29.86 in 8.0 mi Calm Calm - N/A   Clear
6:55 AM 50.0 °F 23.0 °F 35% 29.87 in 9.0 mi Calm Calm - N/A   Clear
7:55 AM 53.1 °F 30.0 °F 41% 29.88 in 9.0 mi Calm Calm - N/A   Clear
8:55 AM 57.9 °F 30.9 °F 36% 29.87 in 10.0 mi North 3.5 mph - N/A   Clear
9:55 AM 61.0 °F 30.9 °F 32% 29.87 in 9.0 mi NNE 3.5 mph - N/A   Clear
10:55 AM 66.9 °F 30.0 °F 25% 29.85 in 7.0 mi East 4.6 mph - N/A   Clear
11:32 AM 71.6 °F 30.2 °F 22% 30.02 in 6.0 mi NNE 4.6 mph - N/A   Haze
1:55 PM 86.0 °F 18.0 °F 8% 29.78 in 10.0 mi West 12.7 mph 29.9 mph N/A   Clear
2:55 PM 84.0 °F 16.0 °F 8% 29.79 in 10.0 mi SW 15.0 mph 32.2 mph N/A   Clear
3:55 PM 84.9 °F 18.0 °F 8% 29.79 in 10.0 mi West 11.5 mph 21.9 mph N/A   Clear
4:55 PM 82.9 °F 18.0 °F 9% 29.81 in 10.0 mi West 15.0 mph 21.9 mph N/A   Clear
5:55 PM 82.0 °F 19.0 °F 10% 29.81 in 10.0 mi WNW 12.7 mph 20.7 mph N/A   Clear
6:55 PM 82.0 °F 15.1 °F 8% 29.81 in 10.0 mi West 16.1 mph 21.9 mph N/A   Clear
7:55 PM 77.0 °F 25.0 °F 15% 29.84 in 10.0 mi NW 5.8 mph - N/A   Clear
8:55 PM 73.0 °F 25.0 °F 17% 29.85 in 6.0 mi WNW 5.8 mph - N/A   Haze
9:55 PM 70.0 °F 21.9 °F 16% 29.88 in 10.0 mi West 8.1 mph - N/A   Clear
10:55 PM 66.0 °F 28.9 °F 25% 29.89 in 10.0 mi ESE 4.6 mph - N/A   Clear
11:55 PM 59.0 °F 30.9 °F 35% 29.91 in 10.0 mi SSE 3.5 mph - N/A   Clear